User: anonymous   Login
Location: Caltech
(34.1382°N, 118.1253°W)
Time: 12:14:05
(UTC-08:00)
Language:

HO-68 - Orbit

View from above orbital plane
View from above orbital plane
View from above satellite
View from above satellite

Ground track
Ground track

The orbit data is extracted from the following two-line orbital elements,

1 36122U 09072B   14330.45949935 -.00000060  00000-0 -43517-4 0  1524
2 36122 100.2289 017.2304 0007344 220.7989 139.2580 13.16320713237782
Epoch (UTC): 26 November 2014 11:01:40
Eccentricity: 0.0007344
inclination: 100.2289°
perigee height: 1193 km
apogee height: 1204 km
right ascension of ascending node: 17.2304°
argument of perigee: 220.7989°
revolutions per day: 13.16320713
mean anomaly at epoch: 139.2580°
orbit number at epoch: 23778

The dashed part of the orbit path shows where the satellite is in the earth's shadow,  

DLR